Location: Unspecified
(40.9447°N, 78.9903°W)
Time: 10:33:52
(UTC-04:00)

Resurs 1-4 Rocket - Pass Details

Date: 27 July 2021
Orbit: 799 x 814 km, 98.6° (Epoch: 27 September)

Event Time Altitude Azimuth Distance (km) Brightness Sun altitude
Rises 03:45:58 0° 3° (N) 3,342 6.2 -21.3°
Reaches altitude 10° 03:48:33 10° 353° (N) 2,404 5.2 -21.0°
Maximum altitude 03:53:07 30° 294° (WNW) 1,409 3.2 -20.5°
Enters shadow 03:54:27 27° 267° (W) 1,517 3.2 -20.3°
